Voltar ao catálogo

COSMOS 2251 DEB

AtivoLEO
NORAD 34122·DEBRIS·🇷🇺 Russia

Lançado Jun 16, 1993 de Plesetsk Cosmodrome

Loading…

Próximas Passagens (próximas 24 horas)

TLE

AtualizadoSource: Space-Track

Época: Sep 14, 2026, 10:19 UTC

1 34122U 93036KT  26257.43027719  .00002963  00000-0  49754-3 0  9990
2 34122  74.0347 306.7034 0077090 133.7774 240.5859 14.68183278927275

Acompanhe COSMOS 2251 DEB em tempo real com AllMySat

Download on the App Store